User: anonymous   Login
Location: Unspecified
(0.0000°N, 0.0000°E)
Time: 03:54:48
(UTC+00:00)
Language:

Kosmos-2154 - Orbit

View from above orbital plane
View from above orbital plane
View from above satellite
View from above satellite

Ground track
Ground track

The orbit data is extracted from the following two-line orbital elements,

1 21666U 91059A   19054.21573559  .00000031  00000-0  16614-4 0  9997
2 21666  82.9058 292.6024 0026345  77.5618  38.3108 13.73317335378494
Epoch (UTC): 23 February 2019 05:10:39
Eccentricity: 0.0026345
inclination: 82.9058°
perigee height: 968 km
apogee height: 1007 km
right ascension of ascending node: 292.6024°
argument of perigee: 77.5618°
revolutions per day: 13.73317335
mean anomaly at epoch: 38.3108°
orbit number at epoch: 37849

The dashed part of the orbit path shows where the satellite is in the earth's shadow,  

DLR